Location: Coopersdale
(40.3556°N, 78.9372°W)
Time: 03:15:13
(UTC+00:00)

Tiros 1 despin weight - Pass Details

Date: 27 January 2021
Orbit: 593 x 642 km, 48.2° (Epoch: 02 March)

Event Time Altitude Azimuth Distance (km) Brightness Sun altitude
Rises 20:51:30 0° 285° (WNW) 2,888 ? 14.8°
Reaches altitude 10° 20:54:04 10° 296° (WNW) 1,973 ? 14.4°
Maximum altitude 20:58:03 30° 358° (N) 1,109 ? 13.9°
Drops below altitude 10° 21:01:59 10° 60° (ENE) 1,947 ? 13.3°
Sets 21:04:30 0° 71° (ENE) 2,843 ? 12.9°
